QPF
0.00 0.00 0.01 0.00 0.00 0.00 0.00 0.00 0.00 0.00 0.00 0.00 0.00 0.01 0.00 0.01 0.01 0.01 0.01 0.01 0.00 0.00 0.00 0.00 0.01 0.02 0.04 0.03 0.04 0.05 0.03 0.02 0.01 0.01 0.02 0.04 0.05 0.04 0.03 0.03 0.03 0.02 0.03 0.04
0.00 0.00 0.01 0.00 0.00 0.00 0.00 0.00 0.00 0.00 0.00 0.00 0.00 0.00 0.00 0.00 0.01 0.02 0.01 0.01 0.00 0.00 0.00 0.00 0.01 0.02 0.03 0.03 0.03 0.04 0.03 0.02 0.01 0.01 0.02 0.03 0.03 0.04 0.04 0.03 0.04 0.03 0.03 0.03
0.01 0.00 0.00 0.00 0.00 0.00 0.00 0.00 0.00 0.00 0.00 0.00 0.00 0.00 0.00 0.00 0.01 0.02 0.02 0.02 0.01 0.01 0.01 0.01 0.01 0.01 0.02 0.03 0.03 0.04 0.03 0.02 0.01 0.01 0.02 0.02 0.02 0.03 0.03 0.04 0.04 0.04 0.03 0.03
0.00 0.00 0.00 0.00 0.00 0.00 0.00 0.00 0.01 0.00 0.00 0.00 0.00 0.00 0.00 0.00 0.01 0.01 0.02 0.02 0.01 0.01 0.01 0.01 0.02 0.01 0.03 0.03 0.03 0.03 0.03 0.02 0.01 0.01 0.01 0.02 0.02 0.02 0.03 0.03 0.05 0.06 0.06 0.06
0.00 0.00 0.00 0.00 0.00 0.00 0.00 0.00 0.00 0.00 0.00 0.00 0.00 0.00 0.00 0.00 0.01 0.01 0.01 0.01 0.01 0.02 0.02 0.02 0.02 0.02 0.03 0.04 0.03 0.03 0.03 0.01 0.01 0.01 0.01 0.02 0.01 0.01 0.02 0.03 0.05 0.06 0.06 0.08
0.01 0.00 0.00 0.00 0.00 0.00 0.00 0.00 0.01 0.00 0.00 0.00 0.00 0.00 0.00 0.00 0.01 0.01 0.01 0.01 0.02 0.02 0.02 0.02 0.03 0.02 0.03 0.05 0.03 0.04 0.03 0.02 0.01 0.01 0.01 0.01 0.01 0.01 0.02 0.03 0.04 0.05 0.06 0.08
0.00 0.01 0.01 0.00 0.00 0.00 0.00 0.00 0.00 0.01 0.01 0.01 0.00 0.00 0.00 0.00 0.00 0.00 0.00 0.01 0.02 0.03 0.02 0.03 0.03 0.03 0.03 0.05 0.04 0.04 0.03 0.02 0.01 0.01 0.01 0.01 0.02 0.02 0.02 0.03 0.03 0.04 0.06 0.05
0.00 0.00 0.01 0.01 0.00 0.00 0.00 0.00 0.01 0.01 0.01 0.00 0.00 0.00 0.00 0.00 0.00 0.00 0.01 0.01 0.02 0.02 0.03 0.06 0.04 0.04 0.03 0.04 0.04 0.04 0.03 0.02 0.02 0.02 0.02 0.02 0.02 0.02 0.02 0.03 0.03 0.03 0.03 0.03
0.00 0.00 0.00 0.00 0.00 0.01 0.01 0.00 0.01 0.01 0.00 0.00 0.00 0.00 0.00 0.00 0.00 0.00 0.01 0.01 0.01 0.01 0.02 0.04 0.05 0.06 0.03 0.03 0.04 0.03 0.02 0.02 0.02 0.02 0.02 0.02 0.02 0.02 0.02 0.02 0.02 0.02 0.02 0.02
0.01 0.01 0.00 0.00 0.00 0.00 0.00 0.00 0.00 0.00 0.00 0.00 0.00 0.00 0.00 0.00 0.00 0.01 0.01 0.01 0.01 0.01 0.01 0.02 0.04 0.07 0.03 0.03 0.04 0.03 0.02 0.02 0.02 0.01 0.01 0.01 0.01 0.01 0.02 0.02 0.03 0.03 0.03 0.03
0.01 0.01 0.01 0.00 0.00 0.00 0.00 0.00 0.00 0.00 0.00 0.00 0.00 0.00 0.00 0.00 0.00 0.01 0.01 0.01 0.01 0.00 0.01 0.01 0.03 0.05 0.02 0.02 0.03 0.03 0.03 0.02 0.02 0.01 0.01 0.01 0.01 0.01 0.01 0.01 0.02 0.02 0.03 0.04
0.01 0.02 0.02 0.01 0.00 0.00 0.00 0.00 0.00 0.01 0.01 0.00 0.00 0.00 0.00 0.00 0.00 0.00 0.00 0.00 0.01 0.00 0.00 0.01 0.03 0.04 0.02 0.01 0.02 0.03 0.04 0.03 0.01 0.01 0.00 0.00 0.00 0.00 0.00 0.01 0.01 0.01 0.02 0.02
0.02 0.03 0.02 0.01 0.01 0.01 0.01 0.00 0.00 0.01 0.01 0.00 0.00 0.00 0.00 0.00 0.00 0.00 0.00 0.00 0.00 0.00 0.00 0.01 0.03 0.03 0.01 0.01 0.01 0.02 0.02 0.02 0.01 0.00 0.00 0.00 0.00 0.00 0.00 0.01 0.01 0.01 0.01 0.01
0.02 0.02 0.02 0.01 0.01 0.01 0.01 0.00 0.00 0.01 0.01 0.00 0.00 0.00 0.00 0.00 0.00 0.00 0.00 0.00 0.00 0.00 0.00 0.01 0.03 0.04 0.01 0.00 0.01 0.01 0.01 0.01 0.01 0.00 0.00 0.00 0.00 0.00 0.00 0.00 0.00 0.00 0.01 0.01
0.03 0.02 0.01 0.01 0.01 0.01 0.01 0.01 0.00 0.01 0.01 0.00 0.00 0.00 0.01 0.01 0.00 0.00 0.00 0.00 0.00 0.00 0.00 0.00 0.01 0.03 0.01 0.00 0.00 0.01 0.01 0.01 0.00 0.00 0.00 0.00 0.00 0.00 0.00 0.00 0.00 0.00 0.00 0.00
0.03 0.03 0.01 0.01 0.00 0.01 0.01 0.01 0.01 0.01 0.01 0.01 0.01 0.01 0.01 0.01 0.01 0.00 0.00 0.00 0.00 0.00 0.00 0.00 0.00 0.00 0.00 0.00 0.00 0.00 0.00 0.00 0.00 0.00 0.00 0.00 0.00 0.00 0.00 0.00 0.00 0.00 0.00 0.00
0.02 0.02 0.02 0.01 0.00 0.01 0.01 0.01 0.01 0.01 0.01 0.01 0.02 0.02 0.01 0.01 0.01 0.01 0.00 0.00 0.00 0.00 0.00 0.00 0.00 0.00 0.00 0.00 0.00 0.00 0.00 0.00 0.00 0.00 0.00 0.00 0.00 0.00 0.00 0.00 0.00 0.00 0.00 0.00
0.03 0.03 0.04 0.03 0.02 0.02 0.01 0.01 0.01 0.01 0.01 0.01 0.01 0.01 0.01 0.01 0.01 0.01 0.01 0.00 0.00 0.00 0.00 0.00 0.00 0.00 0.00 0.00 0.00 0.00 0.00 0.00 0.00 0.00 0.00 0.01 0.01 0.01 0.01 0.01 0.01 0.01 0.00 0.00
0.02 0.03 0.04 0.04 0.02 0.01 0.00 0.00 0.01 0.01 0.01 0.01 0.01 0.01 0.01 0.01 0.01 0.01 0.01 0.01 0.00 0.00 0.00 0.00 0.00 0.00 0.00 0.00 0.00 0.00 0.00 0.00 0.00 0.00 0.00 0.00 0.01 0.01 0.01 0.01 0.01 0.01 0.01 0.01
0.02 0.04 0.06 0.05 0.03 0.01 0.00 0.00 0.01 0.01 0.01 0.01 0.01 0.00 0.00 0.01 0.01 0.01 0.00 0.00 0.00 0.00 0.00 0.00 0.00 0.00 0.00 0.00 0.00 0.00 0.00 0.00 0.00 0.00 0.00 0.00 0.00 0.00 0.01 0.01 0.01 0.01 0.01 0.01
0.02 0.04 0.05 0.04 0.04 0.02 0.01 0.00 0.01 0.01 0.01 0.01 0.00 0.00 0.00 0.00 0.00 0.00 0.00 0.00 0.00 0.00 0.00 0.00 0.00 0.00 0.00 0.00 0.00 0.00 0.00 0.00 0.00 0.00 0.00 0.00 0.00 0.00 0.00 0.00 0.01 0.01 0.01 0.01
0.01 0.02 0.02 0.03 0.04 0.02 0.01 0.00 0.01 0.01 0.01 0.00 0.00 0.00 0.00 0.00 0.00 0.00 0.00 0.00 0.00 0.00 0.00 0.00 0.00 0.00 0.00 0.00 0.00 0.00 0.00 0.00 0.00 0.00 0.00 0.00 0.00 0.00 0.00 0.00 0.01 0.01 0.01 0.01
0.01 0.01 0.02 0.02 0.02 0.01 0.00 0.00 0.00 0.00 0.00 0.00 0.00 0.00 0.00 0.00 0.00 0.00 0.00 0.00 0.00 0.00 0.00 0.00 0.00 0.00 0.00 0.00 0.00 0.00 0.00 0.00 0.00 0.00 0.00 0.00 0.00 0.00 0.00 0.00 0.01 0.01 0.01 0.01
0.00 0.01 0.01 0.01 0.01 0.01 0.00 0.00 0.01 0.01 0.00 0.00 0.00 0.00 0.00 0.00 0.00 0.00 0.00 0.00 0.00 0.00 0.00 0.00 0.00 0.00 0.00 0.01 0.01 0.01 0.01 0.01 0.01 0.01 0.00 0.00 0.00 0.00 0.01 0.01 0.01 0.01 0.01 0.01
0.00 0.00 0.01 0.01 0.01 0.01 0.01 0.01 0.01 0.01 0.01 0.00 0.00 0.00 0.00 0.01 0.00 0.00 0.00 0.00 0.00 0.00 0.00 0.00 0.00 0.01 0.01 0.01 0.01 0.01 0.01 0.01 0.01 0.01 0.01 0.01 0.01 0.01 0.01 0.01 0.01 0.01 0.01 0.01
0.01 0.01 0.01 0.01 0.01 0.01 0.01 0.01 0.01 0.01 0.01 0.01 0.01 0.00 0.00 0.01 0.01 0.00 0.00 0.00 0.00 0.00 0.00 0.01 0.01 0.01 0.01 0.01 0.00 0.01 0.01 0.01 0.01 0.01 0.01 0.01 0.01 0.01 0.01 0.01 0.01 0.01 0.01 0.02
MSLP
1019.94 1020.14 1020.39 1020.67 1020.96 1021.22 1021.43 1021.53 1021.50 1021.32 1021.00 1020.54 1019.99 1019.40 1018.84 1018.35 1017.99 1017.78 1017.73 1017.84 1018.07 1018.41 1018.82 1019.28 1019.76 1020.24 1020.73 1021.21 1021.68 1022.14 1022.57 1022.98 1023.36 1023.71 1024.04 1024.36 1024.67 1025.00 1025.34 1025.70 1026.07 1026.44 1026.80 1027.13
1020.50 1020.69 1020.92 1021.17 1021.44 1021.67 1021.84 1021.90 1021.81 1021.54 1021.11 1020.54 1019.87 1019.17 1018.49 1017.92 1017.50 1017.26 1017.20 1017.30 1017.56 1017.91 1018.33 1018.79 1019.27 1019.75 1020.23 1020.71 1021.20 1021.67 1022.14 1022.59 1023.00 1023.38 1023.71 1024.01 1024.29 1024.55 1024.83 1025.12 1025.43 1025.75 1026.09 1026.42
1021.00 1021.20 1021.43 1021.69 1021.95 1022.17 1022.32 1022.33 1022.17 1021.81 1021.26 1020.55 1019.74 1018.90 1018.10 1017.44 1016.95 1016.68 1016.61 1016.74 1017.02 1017.40 1017.84 1018.31 1018.78 1019.24 1019.71 1020.18 1020.67 1021.17 1021.67 1022.15 1022.60 1023.00 1023.35 1023.63 1023.87 1024.08 1024.28 1024.49 1024.73 1025.00 1025.31 1025.63
1021.40 1021.61 1021.86 1022.14 1022.42 1022.66 1022.80 1022.77 1022.54 1022.09 1021.41 1020.54 1019.57 1018.57 1017.65 1016.89 1016.34 1016.04 1015.99 1016.15 1016.46 1016.89 1017.35 1017.83 1018.29 1018.74 1019.18 1019.63 1020.11 1020.61 1021.12 1021.63 1022.11 1022.54 1022.89 1023.17 1023.37 1023.53 1023.67 1023.81 1023.99 1024.21 1024.48 1024.78
1021.64 1021.87 1022.16 1022.48 1022.80 1023.07 1023.22 1023.17 1022.88 1022.32 1021.51 1020.49 1019.36 1018.21 1017.15 1016.29 1015.69 1015.37 1015.34 1015.54 1015.91 1016.37 1016.88 1017.37 1017.82 1018.24 1018.65 1019.06 1019.50 1019.98 1020.49 1021.01 1021.51 1021.95 1022.32 1022.59 1022.78 1022.90 1022.99 1023.08 1023.21 1023.39 1023.63 1023.93
1021.72 1021.98 1022.30 1022.67 1023.05 1023.36 1023.53 1023.48 1023.14 1022.50 1021.57 1020.41 1019.13 1017.83 1016.65 1015.70 1015.05 1014.72 1014.70 1014.95 1015.37 1015.89 1016.43 1016.93 1017.38 1017.77 1018.13 1018.49 1018.88 1019.31 1019.79 1020.30 1020.79 1021.24 1021.61 1021.88 1022.07 1022.18 1022.25 1022.31 1022.41 1022.57 1022.80 1023.09
1021.67 1021.93 1022.30 1022.72 1023.16 1023.52 1023.73 1023.68 1023.32 1022.61 1021.58 1020.31 1018.90 1017.48 1016.19 1015.17 1014.47 1014.13 1014.13 1014.41 1014.88 1015.45 1016.02 1016.53 1016.97 1017.33 1017.63 1017.93 1018.25 1018.62 1019.05 1019.51 1019.98 1020.42 1020.79 1021.07 1021.26 1021.38 1021.45 1021.52 1021.61 1021.77 1022.00 1022.28
1021.53 1021.80 1022.19 1022.66 1023.15 1023.56 1023.80 1023.77 1023.39 1022.64 1021.55 1020.19 1018.69 1017.18 1015.81 1014.72 1013.98 1013.63 1013.64 1013.94 1014.44 1015.04 1015.63 1016.15 1016.57 1016.89 1017.15 1017.38 1017.62 1017.92 1018.28 1018.69 1019.12 1019.54 1019.90 1020.19 1020.39 1020.53 1020.62 1020.71 1020.83 1021.00 1021.23 1021.52
1021.38 1021.65 1022.05 1022.55 1023.07 1023.51 1023.77 1023.75 1023.35 1022.58 1021.45 1020.04 1018.48 1016.92 1015.50 1014.37 1013.60 1013.22 1013.22 1013.53 1014.03 1014.63 1015.23 1015.74 1016.15 1016.44 1016.65 1016.82 1017.00 1017.22 1017.51 1017.86 1018.25 1018.63 1018.98 1019.27 1019.49 1019.66 1019.78 1019.90 1020.05 1020.24 1020.49 1020.80
1021.30 1021.56 1021.96 1022.45 1022.97 1023.41 1023.66 1023.61 1023.20 1022.41 1021.26 1019.83 1018.25 1016.66 1015.22 1014.06 1013.26 1012.86 1012.83 1013.10 1013.58 1014.17 1014.74 1015.25 1015.63 1015.90 1016.08 1016.21 1016.35 1016.52 1016.76 1017.05 1017.39 1017.74 1018.07 1018.36 1018.59 1018.78 1018.93 1019.09 1019.27 1019.49 1019.76 1020.07
1021.37 1021.61 1021.98 1022.43 1022.89 1023.27 1023.46 1023.36 1022.91 1022.09 1020.92 1019.49 1017.92 1016.34 1014.91 1013.74 1012.92 1012.48 1012.40 1012.61 1013.04 1013.57 1014.11 1014.59 1014.97 1015.23 1015.41 1015.53 1015.65 1015.80 1016.00 1016.26 1016.55 1016.87 1017.17 1017.45 1017.69 1017.89 1018.08 1018.27 1018.48 1018.73 1019.02 1019.34
1021.63 1021.83 1022.14 1022.50 1022.86 1023.12 1023.19 1022.98 1022.45 1021.58 1020.40 1018.99 1017.45 1015.91 1014.50 1013.34 1012.51 1012.02 1011.88 1012.02 1012.36 1012.82 1013.31 1013.76 1014.13 1014.41 1014.61 1014.76 1014.90 1015.06 1015.25 1015.49 1015.75 1016.03 1016.31 1016.56 1016.79 1017.00 1017.21 1017.42 1017.66 1017.94 1018.25 1018.60
1022.06 1022.22 1022.43 1022.66 1022.85 1022.92 1022.81 1022.46 1021.81 1020.88 1019.68 1018.29 1016.81 1015.33 1013.98 1012.85 1012.01 1011.49 1011.27 1011.32 1011.57 1011.94 1012.36 1012.78 1013.15 1013.45 1013.70 1013.91 1014.11 1014.30 1014.51 1014.74 1014.98 1015.23 1015.47 1015.69 1015.90 1016.11 1016.32 1016.56 1016.83 1017.14 1017.49 1017.86
1022.63 1022.72 1022.80 1022.85 1022.82 1022.66 1022.33 1021.78 1020.99 1019.98 1018.77 1017.42 1016.01 1014.63 1013.36 1012.28 1011.46 1010.91 1010.62 1010.58 1010.72 1011.00 1011.35 1011.73 1012.11 1012.45 1012.77 1013.05 1013.32 1013.57 1013.82 1014.05 1014.28 1014.48 1014.67 1014.85 1015.03 1015.22 1015.43 1015.69 1016.00 1016.36 1016.76 1017.18
1023.25 1023.24 1023.17 1023.00 1022.71 1022.29 1021.71 1020.95 1020.02 1018.94 1017.73 1016.45 1015.14 1013.87 1012.72 1011.73 1010.94 1010.38 1010.03 1009.90 1009.94 1010.12 1010.40 1010.75 1011.13 1011.52 1011.91 1012.28 1012.62 1012.94 1013.22 1013.46 1013.66 1013.82 1013.96 1014.08 1014.21 1014.37 1014.58 1014.86 1015.21 1015.63 1016.10 1016.60
1023.81 1023.68 1023.42 1023.02 1022.47 1021.78 1020.96 1020.01 1018.96 1017.83 1016.65 1015.46 1014.29 1013.18 1012.17 1011.28 1010.56 1010.00 1009.62 1009.40 1009.35 1009.44 1009.65 1009.96 1010.34 1010.78 1011.23 1011.68 1012.10 1012.48 1012.79 1013.03 1013.19 1013.30 1013.36 1013.41 1013.49 1013.62 1013.83 1014.13 1014.53 1015.02 1015.58 1016.17
1024.20 1023.93 1023.48 1022.85 1022.06 1021.14 1020.11 1019.02 1017.89 1016.76 1015.65 1014.59 1013.58 1012.65 1011.80 1011.05 1010.40 1009.86 1009.45 1009.18 1009.04 1009.05 1009.19 1009.47 1009.85 1010.31 1010.82 1011.34 1011.83 1012.25 1012.57 1012.79 1012.91 1012.95 1012.94 1012.91 1012.93 1013.02 1013.22 1013.55 1014.01 1014.57 1015.22 1015.91
1024.31 1023.90 1023.27 1022.45 1021.47 1020.37 1019.21 1018.04 1016.90 1015.83 1014.83 1013.93 1013.11 1012.36 1011.68 1011.06 1010.50 1009.99 1009.57 1009.24 1009.04 1008.97 1009.06 1009.30 1009.68 1010.16 1010.71 1011.28 1011.81 1012.26 1012.58 1012.78 1012.85 1012.81 1012.72 1012.62 1012.57 1012.63 1012.82 1013.17 1013.68 1014.31 1015.04 1015.82
1024.10 1023.56 1022.79 1021.83 1020.73 1019.55 1018.34 1017.17 1016.09 1015.12 1014.27 1013.54 1012.90 1012.33 1011.81 1011.30 1010.81 1010.33 1009.90 1009.53 1009.26 1009.14 1009.18 1009.39 1009.76 1010.26 1010.85 1011.45 1012.01 1012.47 1012.80 1012.96 1012.98 1012.89 1012.72 1012.56 1012.46 1012.47 1012.66 1013.02 1013.56 1014.25 1015.04 1015.89
1023.57 1022.93 1022.08 1021.06 1019.93 1018.75 1017.58 1016.48 1015.51 1014.67 1013.98 1013.41 1012.93 1012.51 1012.09 1011.67 1011.22 1010.75 1010.29 1009.89 1009.57 1009.41 1009.41 1009.61 1009.98 1010.50 1011.10 1011.74 1012.32 1012.80 1013.13 1013.28 1013.26 1013.13 1012.91 1012.70 1012.56 1012.55 1012.73 1013.09 1013.65 1014.37 1015.19 1016.06
1022.80 1022.11 1021.25 1020.25 1019.17 1018.06 1017.00 1016.03 1015.20 1014.50 1013.95 1013.50 1013.13 1012.78 1012.43 1012.03 1011.58 1011.09 1010.60 1010.16 1009.81 1009.61 1009.60 1009.80 1010.18 1010.72 1011.36 1012.03 1012.64 1013.15 1013.49 1013.64 1013.62 1013.47 1013.24 1013.01 1012.85 1012.84 1013.00 1013.37 1013.92 1014.64 1015.45 1016.31
1021.90 1021.22 1020.41 1019.51 1018.56 1017.60 1016.69 1015.88 1015.18 1014.60 1014.14 1013.75 1013.41 1013.07 1012.69 1012.26 1011.77 1011.23 1010.70 1010.22 1009.85 1009.64 1009.64 1009.85 1010.26 1010.84 1011.51 1012.22 1012.87 1013.41 1013.78 1013.97 1013.97 1013.85 1013.64 1013.43 1013.29 1013.28 1013.45 1013.81 1014.35 1015.04 1015.82 1016.63
1021.02 1020.42 1019.74 1018.99 1018.21 1017.43 1016.69 1016.02 1015.44 1014.93 1014.49 1014.09 1013.70 1013.29 1012.82 1012.30 1011.72 1011.12 1010.54 1010.04 1009.66 1009.46 1009.48 1009.73 1010.18 1010.80 1011.52 1012.27 1012.97 1013.55 1013.97 1014.21 1014.28 1014.21 1014.06 1013.91 1013.81 1013.84 1014.02 1014.38 1014.90 1015.54 1016.26 1017.01
1020.33 1019.86 1019.34 1018.78 1018.20 1017.61 1017.03 1016.47 1015.95 1015.45 1014.97 1014.48 1013.97 1013.42 1012.82 1012.17 1011.49 1010.81 1010.19 1009.67 1009.31 1009.14 1009.21 1009.50 1010.00 1010.66 1011.43 1012.21 1012.95 1013.59 1014.06 1014.37 1014.51 1014.53 1014.48 1014.41 1014.39 1014.47 1014.69 1015.05 1015.54 1016.14 1016.80 1017.46
1019.91 1019.61 1019.29 1018.93 1018.54 1018.12 1017.67 1017.19 1016.67 1016.13 1015.55 1014.92 1014.25 1013.53 1012.76 1011.97 1011.20 1010.46 1009.81 1009.31 1008.98 1008.86 1008.98 1009.33 1009.87 1010.56 1011.34 1012.15 1012.91 1013.58 1014.11 1014.48 1014.71 1014.83 1014.88 1014.91 1014.99 1015.14 1015.41 1015.79 1016.27 1016.83 1017.42 1018.00
1019.84 1019.73 1019.60 1019.43 1019.21 1018.93 1018.56 1018.11 1017.56 1016.93 1016.22 1015.43 1014.59 1013.69 1012.78 1011.89 1011.03 1010.27 1009.63 1009.16 1008.89 1008.83 1009.00 1009.39 1009.95 1010.65 1011.42 1012.21 1012.97 1013.64 1014.19 1014.61 1014.91 1015.13 1015.29 1015.43 1015.61 1015.85 1016.17 1016.57 1017.06 1017.58 1018.12 1018.64
Thickness
5581 5586 5585 5584 5581 5583 5583 5582 5583 5582 5573 5571 5578 5584 5590 5591 5588 5589 5591 5591 5592 5592 5590 5587 5584 5581 5579 5577 5576 5575 5572 5570 5567 5564 5563 5561 5559 5557 5555 5553 5551 5550 5549 5547
5581 5578 5573 5570 5570 5571 5574 5576 5579 5575 5565 5567 5574 5582 5591 5590 5588 5588 5589 5590 5590 5589 5587 5583 5580 5578 5576 5574 5572 5571 5568 5566 5563 5561 5559 5556 5554 5552 5550 5547 5545 5544 5542 5541
5580 5571 5563 5564 5567 5568 5570 5572 5573 5568 5564 5563 5568 5591 5595 5592 5587 5585 5585 5585 5585 5584 5583 5580 5577 5575 5572 5570 5568 5567 5564 5561 5559 5556 5553 5550 5547 5546 5544 5542 5540 5538 5536 5534
5566 5559 5558 5562 5563 5565 5569 5562 5559 5557 5563 5570 5565 5582 5597 5589 5588 5587 5586 5584 5583 5580 5578 5576 5573 5571 5568 5566 5563 5561 5559 5556 5553 5550 5548 5547 5545 5544 5541 5538 5535 5532 5530 5528
5560 5552 5554 5558 5557 5556 5560 5551 5551 5552 5554 5558 5561 5566 5593 5582 5586 5588 5586 5581 5578 5575 5573 5570 5568 5565 5563 5560 5558 5556 5554 5551 5548 5545 5543 5541 5539 5537 5534 5530 5528 5526 5523 5521
5547 5542 5544 5549 5544 5545 5544 5547 5545 5545 5550 5556 5560 5562 5586 5590 5588 5587 5583 5578 5574 5570 5567 5565 5562 5559 5557 5554 5552 5549 5548 5545 5542 5539 5536 5534 5533 5530 5527 5524 5522 5520 5517 5514
5546 5542 5536 5536 5543 5540 5544 5552 5555 5554 5553 5563 5547 5554 5580 5588 5582 5580 5576 5572 5568 5564 5562 5559 5557 5555 5552 5549 5547 5545 5543 5540 5537 5534 5531 5529 5526 5523 5521 5519 5516 5513 5511 5508
5549 5551 5538 5533 5541 5544 5542 5549 5552 5555 5558 5565 5540 5555 5582 5576 5571 5567 5563 5560 5558 5557 5555 5552 5550 5549 5546 5544 5541 5539 5537 5534 5531 5528 5525 5522 5519 5517 5515 5512 5509 5506 5504 5501
5547 5545 5526 5523 5524 5534 5536 5538 5538 5538 5523 5533 5559 5562 5570 5569 5566 5560 5556 5554 5553 5550 5547 5545 5543 5541 5539 5537 5535 5533 5530 5528 5524 5521 5518 5515 5512 5510 5508 5505 5502 5499 5496 5493
5534 5530 5521 5516 5518 5519 5526 5529 5528 5531 5535 5547 5560 5563 5576 5570 5567 5558 5552 5550 5547 5543 5540 5538 5536 5534 5531 5529 5527 5525 5523 5521 5518 5515 5512 5509 5506 5504 5502 5499 5496 5492 5489 5486
5520 5523 5513 5511 5517 5527 5518 5518 5524 5527 5527 5539 5550 5574 5573 5569 5562 5557 5551 5546 5541 5537 5534 5532 5530 5527 5524 5522 5520 5518 5516 5514 5511 5508 5505 5503 5500 5497 5495 5492 5490 5486 5483 5479
5511 5517 5517 5515 5506 5504 5515 5523 5523 5528 5521 5521 5537 5563 5557 5553 5550 5546 5542 5537 5533 5530 5527 5524 5522 5520 5518 5516 5513 5511 5509 5506 5504 5501 5499 5497 5494 5491 5489 5486 5483 5479 5476 5473
5501 5505 5512 5518 5506 5490 5497 5505 5509 5512 5514 5516 5529 5557 5547 5540 5538 5535 5532 5530 5527 5523 5520 5517 5515 5513 5511 5508 5506 5504 5501 5499 5497 5494 5492 5490 5488 5485 5483 5480 5476 5473 5470 5467
5494 5496 5509 5526 5529 5510 5497 5497 5498 5501 5512 5520 5529 5551 5549 5541 5536 5532 5528 5523 5520 5517 5513 5511 5508 5506 5503 5500 5498 5496 5494 5491 5489 5487 5485 5483 5480 5478 5475 5472 5469 5466 5463 5460
5483 5489 5486 5493 5493 5490 5496 5498 5494 5498 5515 5522 5539 5537 5544 5540 5531 5527 5521 5516 5512 5510 5507 5504 5501 5498 5495 5492 5489 5487 5485 5482 5480 5478 5477 5475 5472 5469 5466 5463 5460 5458 5455 5453
5470 5475 5471 5473 5476 5475 5480 5494 5495 5496 5504 5512 5517 5523 5530 5524 5518 5514 5512 5507 5506 5505 5501 5497 5492 5488 5486 5483 5480 5477 5475 5473 5471 5469 5467 5465 5463 5461 5458 5455 5452 5449 5447 5445
5461 5460 5469 5483 5462 5467 5490 5506 5498 5497 5501 5508 5515 5528 5519 5511 5509 5508 5505 5501 5499 5497 5493 5488 5484 5480 5476 5473 5470 5467 5465 5462 5460 5459 5457 5456 5454 5451 5449 5446 5444 5441 5439 5437
5451 5451 5456 5465 5464 5487 5521 5504 5503 5502 5500 5497 5504 5510 5508 5504 5500 5494 5492 5491 5490 5487 5482 5478 5473 5470 5466 5462 5458 5456 5454 5452 5450 5448 5446 5445 5443 5442 5440 5437 5436 5433 5431 5428
5446 5447 5449 5454 5470 5492 5502 5491 5485 5488 5497 5496 5492 5497 5495 5486 5484 5490 5485 5481 5479 5476 5471 5467 5463 5458 5455 5451 5448 5445 5442 5440 5439 5437 5436 5434 5433 5431 5430 5428 5426 5424 5422 5419
5430 5434 5441 5443 5465 5482 5504 5484 5473 5480 5489 5491 5483 5483 5479 5472 5485 5492 5475 5468 5465 5462 5458 5454 5449 5445 5442 5440 5436 5433 5431 5430 5428 5427 5425 5423 5421 5420 5420 5418 5415 5413 5411 5409
5419 5422 5429 5438 5455 5472 5478 5459 5464 5478 5489 5475 5469 5466 5462 5463 5471 5465 5457 5453 5449 5447 5443 5440 5437 5434 5431 5427 5423 5421 5420 5418 5417 5414 5412 5411 5410 5409 5408 5406 5404 5401 5399 5397
5433 5428 5424 5429 5439 5465 5456 5448 5463 5472 5463 5457 5454 5450 5447 5448 5445 5443 5442 5439 5435 5433 5430 5427 5424 5422 5418 5414 5410 5409 5408 5406 5403 5401 5400 5399 5397 5396 5395 5393 5391 5388 5386 5385
5429 5440 5440 5441 5458 5452 5440 5445 5444 5440 5441 5441 5440 5437 5434 5431 5431 5430 5429 5426 5423 5420 5417 5414 5410 5408 5405 5401 5398 5397 5396 5392 5390 5388 5386 5385 5384 5383 5382 5380 5378 5376 5374 5373
5417 5413 5420 5418 5433 5432 5426 5425 5423 5421 5422 5423 5421 5419 5418 5418 5418 5416 5415 5412 5409 5406 5403 5399 5396 5394 5392 5389 5385 5384 5381 5378 5376 5375 5374 5372 5371 5370 5369 5367 5366 5364 5363 5361
5414 5399 5404 5409 5418 5414 5417 5413 5413 5411 5408 5406 5406 5404 5404 5405 5405 5404 5402 5398 5395 5392 5389 5385 5383 5382 5380 5376 5373 5370 5367 5365 5363 5362 5361 5360 5359 5358 5356 5354 5352 5351 5350 5348
5390 5389 5400 5417 5409 5406 5410 5405 5400 5396 5396 5394 5393 5391 5390 5389 5391 5390 5388 5386 5382 5379 5376 5372 5370 5369 5367 5363 5360 5357 5354 5351 5350 5350 5349 5348 5347 5345 5344 5342 5341 5339 5337 5335